Presure
101 96 128 96 172 149 78 83 94 86 89 93 94 95 97 221 219 210 212 210 205 192 195 294 276 306 269 257 241 228 197 193 208 182 193 179 204 363 336 338 362 330 325
97 116 91 182 96 92 101 87 88 92 175 90 99 98 175 207 213 238 278 286 301 302 310 316 312 278 218 249 237 217 203 200 181 207 162 196 222 225 308 319 325 331 343
135 129 130 87 98 140 93 103 90 91 90 182 117 214 212 228 265 306 292 280 267 292 323 307 280 264 253 244 229 214 190 164 190 197 178 186 210 221 239 293 318 319 339
91 80 90 84 87 93 91 88 95 101 98 223 215 225 202 234 343 331 323 313 316 312 309 279 267 254 244 237 221 196 197 197 184 177 198 191 175 209 208 198 279 290 310
100 108 100 94 88 90 94 108 205 209 221 212 205 197 224 222 234 322 317 282 248 244 239 269 259 245 239 226 218 165 191 173 181 147 194 173 182 179 188 199 208 267 280
85 92 93 149 169 140 204 205 228 214 212 209 208 184 216 209 206 217 211 251 250 264 266 254 253 248 234 224 215 204 169 187 181 180 190 184 179 177 175 184 212 187 218
95 103 94 144 214 210 219 216 209 207 201 192 181 225 213 201 203 205 200 208 196 221 251 203 213 230 212 183 182 186 193 173 188 185 190 192 193 177 165 194 208 204 177
228 202 172 200 218 213 205 203 201 193 187 185 224 215 207 203 198 185 193 180 187 181 181 185 212 208 225 187 180 181 188 179 182 184 189 184 177 192 177 188 191 206 197
207 205 225 204 201 200 199 191 179 179 218 216 212 206 206 198 193 190 181 174 178 172 149 175 170 170 161 179 179 180 178 179 178 182 186 181 175 183 185 189 188 196 192
201 199 209 193 193 208 190 196 226 221 211 213 210 203 199 195 192 188 184 187 170 152 161 165 170 171 166 168 167 163 160 169 171 178 184 183 192 192 164 193 196 197 195
194 192 209 195 202 213 212 212 210 208 206 204 200 195 193 188 186 184 182 175 165 177 135 148 155 161 151 169 170 180 183 182 180 182 182 183 182 187 203 209 196 184 137
216 213 214 213 211 203 203 202 199 194 193 192 183 188 189 179 179 177 173 167 137 150 157 165 167 170 185 186 185 187 188 190 189 184 188 192 194 195 196 198 197 196 197
201 200 200 197 193 193 191 186 183 183 181 179 181 182 175 176 160 155 156 144 157 143 199 200 208 215 202 191 198 194 195 198 197 197 198 199 199 194 189 190 188 189 184
188 184 181 180 191 194 189 190 175 166 173 153 169 159 157 153 163 195 222 128 177 194 214 228 225 191 232 231 229 230 233 240 241 242 242 244 246 245 246 245 243 246 246
217 163 221 177 177 197 225 225 216 220 223 218 223 231 234 230 206 197 217 228 229 227 231 203 232 234 236 227 226 225 222 224 226 226 229 225 230 226 217 217 220 217 222
176 171 194 193 192 196 213 213 203 176 173 215 215 218 216 217 220 212 215 180 220 220 216 214 212 219 223 222 225 225 226 226 230 234 229 223 226 227 223 219 212 213 217
211 163 144 208 201 173 168 183 204 161 204 202 202 202 202 200 203 205 203 210 201 205 208 211 200 218 215 214 215 213 218 227 231 225 219 223 227 231 239 235 226 236 247
179 177 138 135 179 194 214 214 213 196 206 209 207 180 207 211 212 207 205 214 208 201 209 194 192 211 203 209 227 217 204 218 217 220 228 226 223 225 222 224 243 237 236
205 214 209 206 192 207 183 141 127 209 202 202 202 208 214 210 218 221 216 216 214 215 212 206 211 217 216 223 187 200 228 237 243 242 240 237 234 230 231 144 226 225 236
190 195 201 202 193 194 199 203 204 210 211 204 218 222 219 221 220 224 221 218 215 218 218 223 242 238 234 226 186 247 257 253 247 253 232 183 245 124 241 238 238 240 247
194 207 205 206 209 218 222 201 204 189 197 217 218 220 222 227 234 227 226 230 231 228 231 234 234 249 242 260 269 271 266 266 262 259 257 256 216 257 255 256 257 253 252
202 207 218 201 193 190 195 196 200 198 214 209 215 211 221 237 237 239 232 232 247 258 252 260 274 270 261 278 267 255 266 120 180 274 286 258 269 261 266 257 255 260 234
193 193 199 200 201 201 203 201 208 244 252 252 223 231 237 254 251 248 240 256 256 259 279 255 276 282 246 145 261 301 259 116 298 334 328 312 317 317 311 317 314 317 316
198 197 198 202 230 241 248 241 253 240 245 253 242 259 236 251 245 242 261 251 269 296 294 300 217 136 155 301 102 291 325 361 359 354 321 343 360 354 346 336 350 361 368
215 227 223 233 247 240 248 262 257 243 274 278 240 239 254 260 189 317 311 346 347 346 361 373 368 367 371 261 350 203 359 321 324 353 365 368 267 364 355 355 375 370 376
248 244 243 253 252 259 265 262 277 277 293 151 320 333 333 362 382 380 335 326 304 330 354 369 349 348 357 357 359 353 354 351 353 368 363 367 368 379 376 373 375 367 444
Wind_Speed
33 33 46 43 62 55 36 41 50 50 56 61 61 67 72 70 70 69 71 71 68 62 63 64 59 29 32 34 34 37 33 28 36 21 23 25 35 25 24 11 12 31 44
37 49 41 67 54 48 44 51 55 62 68 60 73 74 72 68 70 70 76 75 67 64 57 45 27 26 41 34 33 31 30 28 25 35 31 27 39 35 35 20 4 16 30
52 54 59 44 55 67 56 64 55 62 64 69 75 65 66 65 59 61 63 64 61 51 37 25 22 27 30 34 32 29 29 26 28 27 21 18 33 31 27 30 13 4 23
50 37 48 43 53 59 61 59 72 75 79 61 62 60 61 56 28 31 33 33 34 28 19 20 25 27 31 32 30 28 29 29 26 25 28 27 20 31 25 20 22 6 5
57 65 58 57 57 61 65 74 67 65 63 61 60 59 55 52 46 29 26 24 34 33 34 22 26 31 32 32 31 27 31 32 31 27 30 24 22 14 16 23 15 10 7
46 59 62 72 72 73 64 64 62 62 62 61 57 59 52 49 49 43 40 32 29 25 23 26 28 31 33 33 33 33 29 34 34 32 32 29 23 23 18 24 23 19 13
68 59 66 73 60 62 60 61 61 62 63 61 58 51 50 50 45 42 42 40 39 31 25 32 31 30 32 34 34 35 38 37 37 34 35 35 35 26 30 33 32 29 27
57 61 65 63 61 61 62 62 62 62 62 60 52 51 49 48 46 47 43 43 40 39 38 39 34 35 37 39 39 39 42 39 38 39 39 34 33 40 33 36 34 35 37
59 61 61 60 63 63 63 62 61 62 50 52 52 52 51 49 48 47 45 45 45 42 36 41 42 42 41 44 45 45 45 45 44 45 45 43 39 41 41 43 43 45 41
62 62 58 64 64 58 61 56 46 49 53 53 53 53 53 53 52 51 50 50 45 41 46 47 47 48 48 49 48 48 46 49 48 51 52 51 56 55 51 54 49 53 52
64 66 57 61 60 56 55 52 53 54 55 56 55 55 56 56 56 56 56 53 50 56 44 47 48 51 47 54 54 59 60 60 58 58 57 57 56 59 65 65 62 54 49
53 57 55 53 55 58 60 59 58 59 61 61 60 60 61 59 59 59 57 56 48 52 54 60 61 62 68 69 69 69 70 69 68 67 69 69 72 71 71 71 70 68 69
59 61 63 62 61 63 64 66 66 65 65 66 66 65 63 64 57 56 57 53 61 57 75 76 77 77 76 72 76 76 77 78 79 78 79 79 79 75 71 71 69 69 68
65 67 68 67 68 69 69 71 64 60 65 59 69 63 64 61 67 72 78 57 71 77 78 79 77 78 78 79 79 79 80 80 80 80 82 81 80 79 78 78 79 76 76
58 62 63 65 65 62 67 69 78 78 76 77 75 70 70 72 83 80 80 79 79 82 82 82 84 85 84 83 84 86 86 85 86 86 84 84 84 85 85 85 84 84 83
74 72 71 78 78 76 75 77 82 78 76 80 80 78 80 80 82 87 86 80 85 86 87 88 89 90 91 91 93 93 93 93 95 95 93 91 92 91 91 91 92 91 91
76 67 65 82 84 79 79 78 85 72 85 85 86 86 85 88 90 91 92 93 93 92 93 94 91 96 97 95 94 93 97 101 104 102 98 99 101 100 101 98 94 99 102
79 78 66 64 78 83 89 90 91 88 91 92 92 93 94 95 96 97 97 99 97 97 99 91 89 102 100 103 109 104 97 107 108 107 111 109 106 103 97 99 107 104 102
91 92 93 94 92 97 94 67 60 99 95 97 97 100 102 100 103 104 106 106 106 107 108 107 109 112 111 115 97 103 111 116 119 119 117 116 117 116 116 59 109 106 116
90 93 97 100 97 99 102 105 105 106 107 104 112 113 111 111 112 113 113 112 111 115 117 120 122 121 121 120 98 118 113 116 119 117 118 84 120 53 124 123 124 126 129
98 104 103 106 109 112 114 107 112 104 105 118 119 116 120 122 126 124 124 127 126 124 124 125 125 128 125 127 122 121 118 119 118 119 121 123 94 124 126 128 130 131 131
110 112 114 112 106 105 111 110 113 112 128 123 126 121 128 134 133 133 132 134 135 136 134 132 130 131 128 126 123 122 124 46 74 120 125 122 126 127 130 132 134 136 112
108 109 114 114 115 115 119 120 129 136 134 132 132 136 136 134 135 137 136 139 138 138 138 129 131 132 118 57 129 131 112 55 126 110 120 121 123 122 122 125 126 127 127
114 112 114 120 131 133 133 136 133 132 132 135 127 136 123 133 132 131 139 135 141 139 136 133 93 50 66 124 37 118 99 109 112 110 104 106 110 111 112 115 113 114 112
129 133 132 135 138 135 136 141 138 131 143 142 127 127 134 133 73 131 135 126 124 125 116 102 104 101 98 86 104 68 103 111 111 108 103 101 89 101 103 104 103 104 105
139 139 140 141 142 145 149 148 148 139 138 72 130 125 122 118 112 109 112 112 117 115 109 99 103 102 98 99 100 102 103 104 105 103 102 100 98 98 98 97 99 99 76
Wind_Direction
272 274 273 277 276 276 295 298 293 301 299 299 303 305 303 298 299 298 299 299 298 296 297 297 296 285 279 275 276 285 297 296 317 296 325 290 345 1 6 0 215 210 207
275 275 273 276 275 290 286 299 298 298 293 306 301 301 299 301 301 296 286 286 287 290 294 294 276 272 292 269 273 287 294 302 297 318 284 340 339 349 15 10 332 226 216
273 271 277 291 279 285 292 289 296 303 304 299 299 299 300 300 297 286 286 287 289 292 292 274 271 263 264 263 273 285 288 288 301 314 280 327 338 344 357 19 12 270 216
276 276 287 287 289 288 289 294 292 292 294 297 297 301 299 302 296 293 293 291 292 290 271 269 263 261 261 267 275 284 292 301 300 291 318 321 309 335 340 333 21 349 262
276 274 283 288 289 290 293 294 292 295 296 296 297 297 304 304 304 307 301 300 296 293 295 265 260 265 267 275 279 289 290 292 296 278 311 280 305 300 317 326 318 351 2
285 287 286 279 282 286 286 287 290 292 293 296 297 297 297 299 302 305 306 301 297 294 288 282 273 271 269 279 284 285 289 292 294 297 304 301 300 293 279 309 306 282 277
283 283 284 281 284 285 288 288 290 293 294 295 295 294 292 292 295 300 299 302 299 303 298 296 293 282 290 289 291 291 290 287 292 295 299 300 303 285 260 307 303 297 264
283 276 279 283 288 287 287 289 291 291 292 293 292 292 290 290 290 289 291 291 292 293 294 295 293 290 284 289 290 291 291 291 292 293 296 291 283 298 281 293 295 291 291
278 277 285 284 284 284 286 287 287 289 284 283 286 287 289 287 286 287 286 287 289 290 284 290 290 291 290 290 290 290 290 291 291 292 293 291 283 292 293 292 291 292 283
281 285 285 283 284 286 284 286 285 284 285 285 284 286 287 287 287 286 286 288 286 285 288 288 287 286 287 287 288 287 286 287 288 291 293 292 294 294 279 290 287 287 287
280 280 282 285 285 287 287 286 285 285 285 284 284 284 285 286 287 288 288 288 286 289 279 283 285 284 283 285 285 288 289 289 289 290 289 289 289 290 287 285 289 284 278
282 282 284 283 282 282 284 284 283 283 283 284 284 284 284 285 285 285 286 285 277 284 287 288 287 288 289 289 290 289 289 287 287 288 287 285 284 284 284 284 284 284 283
278 280 281 280 278 278 279 281 282 282 283 286 285 284 284 284 284 286 287 280 286 283 286 286 287 286 284 283 283 283 283 283 283 283 282 282 282 282 281 280 278 277 276
279 280 280 281 281 280 279 280 284 287 285 289 287 288 288 286 287 288 291 280 282 282 288 291 290 284 286 286 284 284 285 286 285 284 283 283 282 282 281 281 282 282 282
285 282 284 287 287 286 287 287 283 285 287 287 289 292 292 292 285 284 289 292 292 292 292 284 292 292 290 288 287 286 284 284 283 281 281 280 281 279 277 277 277 276 277
280 282 283 281 283 284 285 286 285 285 284 287 286 287 287 288 289 288 289 282 290 290 289 288 287 290 290 289 289 290 289 288 289 287 285 282 281 280 276 274 275 274 274
284 283 284 283 282 281 282 283 284 284 285 285 285 285 284 284 284 284 285 286 285 286 287 288 287 288 288 288 287 286 287 287 287 286 284 285 285 285 284 283 281 282 281
281 283 282 280 284 284 285 285 285 284 284 285 285 284 285 285 284 285 286 286 285 285 287 285 284 286 285 285 284 284 283 284 285 285 283 283 284 283 282 283 282 283 280
286 286 285 286 282 286 282 286 285 287 284 283 284 285 285 285 285 284 285 285 285 285 284 285 285 284 283 282 283 282 281 281 280 280 281 281 282 283 282 276 280 279 280
284 286 284 283 284 285 286 286 286 286 286 286 287 286 286 285 285 286 285 285 284 284 284 284 286 285 283 282 283 282 280 279 279 278 283 277 277 283 277 278 278 278 277
288 285 285 286 287 287 285 285 288 288 287 289 289 288 287 287 285 285 286 284 284 283 284 283 283 285 283 288 285 282 281 279 278 277 277 277 275 276 276 275 275 276 276
286 285 281 285 285 284 287 287 287 287 286 289 287 288 286 284 285 284 284 285 286 285 284 287 286 285 286 284 284 284 283 267 276 280 279 277 276 276 275 275 275 275 274
286 286 287 286 286 286 286 287 287 285 286 285 285 283 284 285 285 285 285 287 287 288 286 287 285 284 285 280 284 278 277 268 280 279 276 277 276 276 276 275 275 275 275
285 286 287 287 283 283 285 285 286 285 286 286 286 286 286 286 286 286 287 287 286 282 282 281 283 287 282 277 295 279 282 279 278 278 277 276 274 274 275 274 274 275 275
285 283 285 284 286 285 287 289 288 284 290 288 284 284 286 286 283 283 283 281 281 281 282 282 281 281 280 282 279 283 278 280 280 280 280 280 278 278 277 277 278 276 277
287 287 288 289 289 291 290 291 290 287 286 286 284 283 283 281 281 281 281 281 280 281 281 280 280 279 278 277 277 278 279 280 282 280 281 282 283 284 284 284 282 279 283